Flight Track Log - Related Links

Times and Time Zones

All times are in EST time to prevent confusion due to time zone crossing. See the ASQ5740 flight status page for this flight to view local times or setup timezone preferences in your user account.

Time Position Orientation Groundspeed Altitude Reporting Facility
EST Latitude Longitude Course Direction KTS MPH feet Rate Location/Type
Wed 02:54:59 PM 34.9789 -82.0894 68° East 280 322 6,300  Level Atlanta Center
Wed 02:55:00 PM 35.1418 -81.9496 North  Level Estimated
Wed 02:55:59 PM 35.0108 -82.0000 66° East 294 338 9,200  Level Atlanta Center
Wed 02:56:00 PM 35.2237 -81.8594 North  Level Estimated
Wed 02:56:59 PM 35.0658 -81.9300 46° Northeast 286 329 10,900  Level Atlanta Center
Wed 02:57:00 PM 35.3055 -81.7691 North  Level Estimated
Wed 02:57:59 PM 35.1619 -81.9378 356° North 265 305 12,500  Level Atlanta Center
Wed 02:58:00 PM 35.3872 -81.6786 80° East  Level Estimated
Wed 02:58:59 PM 35.2664 -81.9403 359° North 310 357 14,000  Level Atlanta Center
Wed 02:59:59 PM 35.3422 -81.8644 39° Northeast 326 375 15,400 1,400 Climbing Atlanta Center
Wed 03:00:59 PM 35.3900 -81.7358 65° Northeast 353 406 16,800 1,200 Climbing Atlanta Center
Wed 03:01:59 PM 35.4397 -81.6172 63° Northeast 366 421 17,800 1,100 Climbing Atlanta Center
Wed 03:02:59 PM 35.4872 -81.4881 66° East 394 453 19,000 1,050 Climbing Atlanta Center
Wed 03:03:59 PM 35.5344 -81.3514 67° East 404 465 19,900 1,133 Climbing Atlanta Center
Wed 03:05:59 PM 35.6406 -81.0669 65° Northeast 427 491 22,400 1,100 Climbing Atlanta Center
Wed 03:06:59 PM 35.6914 -80.9294 65° Northeast 427 491 23,200 700 Climbing Atlanta Center
Wed 03:07:59 PM 35.7383 -80.8100 64° Northeast 422 486 23,800 700 Climbing Atlanta Center
Wed 03:08:59 PM 35.7911 -80.6722 65° Northeast 435 501 24,600 857 Climbing Atlanta Center
Wed 03:10:40 PM 35.8831 -80.4269 65° Northeast 432 497 26,100 857 Climbing Washington Center
Wed 03:11:40 PM 35.9344 -80.2867 66° East 437 503 26,900 454 Climbing Washington Center
Wed 03:12:39 PM 35.9881 -80.1433 65° Northeast 443 510 27,000 50 Climbing Washington Center
Wed 03:13:40 PM 36.0417 -79.9950 66° East 456 525 27,000  Level Washington Center
Wed 03:14:38 PM 36.1156 -79.8578 56° Northeast 462 532 27,000  Level Washington Center
Wed 03:15:38 PM 36.1956 -79.7178 55° Northeast 489 563 27,000  Level Washington Center
Wed 03:16:39 PM 36.2711 -79.5803 56° Northeast 494 568 27,000 -197 Level Washington Center
Wed 03:17:40 PM 36.3508 -79.4425 54° Northeast 494 568 26,600 -393 Descending Washington Center
Wed 03:18:41 PM 36.4197 -79.3114 57° Northeast 494 568 26,200 -508 Descending Washington Center
Wed 03:19:38 PM 36.5078 -79.1531 55° Northeast 501 577 25,600 -559 Descending Washington Center
Wed 03:20:39 PM 36.5914 -79.0119 54° Northeast 501 577 25,100 -293 Descending Washington Center
Wed 03:21:41 PM 36.6528 -78.8981 56° Northeast 501 577 25,000 -50 Descending Washington Center
Wed 03:22:38 PM 36.7472 -78.7258 56° Northeast 501 577 25,000  Level Washington Center
Wed 03:23:40 PM 36.8172 -78.5964 56° Northeast 501 577 25,000  Level Washington Center
Wed 03:24:40 PM 36.9000 -78.4619 52° Northeast 501 577 25,000  Level Washington Center
Wed 03:25:41 PM 37.0128 -78.3672 34° Northeast 479 551 25,000 -51 Level Washington Center
Wed 03:26:38 PM 37.1422 -78.2703 31° Northeast 485 558 24,900 -458 Descending Washington Center
Wed 03:27:39 PM 37.2567 -78.1803 32° Northeast 485 558 24,100 -744 Descending Washington Center
Wed 03:28:39 PM 37.3564 -78.1028 32° Northeast 478 550 23,400 -893 Descending Washington Center
Wed 03:29:40 PM 37.4667 -78.0175 32° Northeast 473 544 22,300 -857 Descending Washington Center
Wed 03:30:38 PM 37.5728 -77.9317 33° Northeast 461 531 21,700 -605 Descending Washington Center
Wed 03:31:39 PM 37.6639 -77.8611 32° Northeast 423 487 21,100 -1,230 Descending Washington Center
Wed 03:32:40 PM 37.7442 -77.7953 33° Northeast 373 429 19,200 -1,664 Descending Washington Center
Wed 03:33:38 PM 37.8225 -77.7317 33° Northeast 344 396 17,800 -1,780 Descending Washington Center
Wed 03:34:38 PM 37.9008 -77.6708 31° Northeast 332 382 15,700 -1,934 Descending Washington Center
Wed 03:35:39 PM 37.9769 -77.6097 32° Northeast 327 376 13,900 -1,884 Descending Washington Center
Wed 03:36:39 PM 38.0572 -77.5486 31° Northeast 322 371 11,900 -1,835 Descending Washington Center
Wed 03:37:40 PM 38.1289 -77.4922 32° Northeast 316 364 10,200 -958 Descending Washington Center
Wed 03:38:38 PM 38.1986 -77.4358 32° Northeast 298 343 10,000 -661 Descending Washington Center
Wed 03:39:38 PM 38.2703 -77.3928 25° Northeast 292 336 8,900 -1,279 Descending Washington Center
Wed 03:40:40 PM 38.3458 -77.3575 20° North 281 323 7,400 -1,574 Descending Washington Center
Wed 03:41:40 PM 38.4250 -77.3567 360° North 271 312 5,700 -1,500 Descending Washington Center
Wed 03:42:40 PM 38.4981 -77.3639 356° North 271 312 4,400 -864 Descending Washington Center
Wed 03:43:38 PM 38.5731 -77.3656 359° North 266 306 4,000 -203 Descending Washington Center
Wed 03:44:38 PM 38.6439 -77.3644 North 266 306 4,000  Level Washington Center
Wed 03:45:39 PM 38.7147 -77.3608 North 261 300 4,000  Level Washington Center
Wed 03:46:40 PM 38.7858 -77.3572 North 251 289 4,000  Level Washington Center
Wed 03:47:51 PM 38.8667 -77.3500 North 241 277 4,000  Level Potomac TRACON
Wed 03:48:51 PM 38.9333 -77.3500 360° North 229 264 4,000 -450 Level Potomac TRACON
Wed 03:49:51 PM 39.0000 -77.3500 360° North 224 258 3,100 -522 Descending Potomac TRACON
Wed 03:50:46 PM 39.0500 -77.3500 360° North 218 251 3,000 -52 Descending Potomac TRACON
Wed 03:51:46 PM 39.1000 -77.3500 360° North 177 204 3,000  Level Potomac TRACON
Wed 03:52:47 PM 39.1500 -77.3667 346° North 187 215 3,000 -99 Level Potomac TRACON
Wed 03:53:47 PM 39.1167 -77.4167 229° Southwest 181 208 2,800 -347 Descending Potomac TRACON
Wed 03:54:48 PM 39.0833 -77.4500 218° Southwest 170 196 2,300 -645 Descending Potomac TRACON
Wed 03:55:48 PM 39.0333 -77.4667 195° South 164 189 1,500 -750 Descending Potomac TRACON
Wed 03:56:48 PM 39.0000 -77.4667 180° South 140 161 800 -700 Descending Potomac TRACON
Wed 03:58:00 PM 38.9474 -77.4599 191° South  Level Estimated
Wed 04:05:00 PM 38.9474 -77.4599 191° South  Level Estimated
Wed 04:06:00 PM 38.9474 -77.4599 191° South  Level Estimated

Login

Don't have an account? Register now (free) for customized features, flight alerts, and more!